Location: Kershaw
(34.5481°N, 80.5823°W)
Time: 16:20:29
(UTC+00:00)

Courier 1B Rocket - Pass Details

Date: 04 October 2022
Orbit: 920 x 1202 km, 28.2° (Epoch: 08 December)

Event Time Altitude Azimuth Distance (km) Brightness Sun altitude
Rises 23:36:56 0° 242° (WSW) 3,846 9.4 -8.0°
Reaches altitude 10° 23:39:54 10° 235° (SW) 2,845 8.4 -8.6°
Maximum altitude 23:46:16 40° 168° (SSE) 1,416 5.8 -9.9°
Enters shadow 23:51:33 13° 103° (ESE) 2,452 6.5 -11.0°
Drops below altitude 10° 23:52:15 10° 100° (E) 2,676 - -11.1°
Sets 23:54:58 0° 93° (E) 3,595 - -11.7°
